Sturgeon Bay, WI

12:12 PM CDT on August 22, 2017 (GMT -0500)
Door County Cherryland

Weather History for KSUE - February, 2012

Change the Weather History Date:

Sunday, February 12, 2012

  Actual Average Record
Temperature  
Mean Temperature 20 °F -  
Max Temperature 30 °F 27 °F 43 °F (1977)
Min Temperature 10 °F 10 °F -29 °F (1917)
Degree Days  
Heating Degree Days 45    
Moisture  
Dew Point 3 °F    
Average Humidity 50    
Maximum Humidity 67    
Minimum Humidity 37    
Precipitation  
Precipitation 0.00 in - - ()
Sea Level Pressure  
Sea Level Pressure 30.15 in    
Wind  
Wind Speed 11 mph (West)    
Max Wind Speed 16 mph    
Max Gust Speed 22 mph    
Visibility 10 miles    
Events      
Averages and records for this station are not official NWS values.
T = Trace of Precipitation, MM = Missing Value Source: NWS Daily Summary

Daily Weather History Graph

Daily Weather History Graph

Search for Another Location

Airport or City:

Trip Planner

Search our weather history database for the weather conditions in past years. The results will help you decide how hot, cold, wet, or windy it might be!

Date:

Astronomy

Feb. 12, 2012 Rise Set
Actual Time 6:55 AM CST 5:13 PM CST
Civil Twilight 6:25 AM CST 5:43 PM CST
Nautical Twilight 5:50 AM CST 6:17 PM CST
Astronomical Twilight 5:16 AM CST 6:51 PM CST
Moon 11:30 PM CST (2/12) 8:56 AM CST (2/12)
Length of Visible Light 11h 18m
Length of Day
10h 17m
Waning Gibbous, 72% of the Moon is Illuminated
Feb 12
Waning Gibbous
Feb 14
Last Quarter
Feb 21
New
Feb 29
First Quarter
Mar 8
Full

Hourly Weather History & Observations

Time (CST) Temp. Windchill Dew Point Humidity Pressure Visibility Wind Dir Wind Speed Gust Speed Precip Events Conditions
12:15 AM 12.2 °F 0.7 °F 1.4 °F 62% 30.20 in 10.0 mi West 8.1 mph - N/A   Clear
12:35 AM 12.2 °F -0.2 °F 1.4 °F 62% 30.20 in 10.0 mi West 9.2 mph - N/A   Clear
12:55 AM 12.2 °F 0.7 °F 1.4 °F 62% 30.20 in 10.0 mi West 8.1 mph - N/A   Clear
1:15 AM 12.2 °F 0.7 °F -0.4 °F 57% 30.20 in 10.0 mi West 8.1 mph - N/A   Clear
1:35 AM 12.2 °F 1.7 °F -0.4 °F 57% 30.20 in 10.0 mi West 6.9 mph - N/A   Clear
1:55 AM 12.2 °F 0.7 °F -0.4 °F 57% 30.21 in 10.0 mi West 8.1 mph - N/A   Clear
2:15 AM 12.2 °F 0.7 °F 1.4 °F 62% 30.20 in 10.0 mi WSW 8.1 mph - N/A   Clear
2:35 AM 12.2 °F 0.7 °F -0.4 °F 57% 30.20 in 10.0 mi West 8.1 mph - N/A   Clear
2:55 AM 12.2 °F -0.2 °F -0.4 °F 57% 30.19 in 10.0 mi West 9.2 mph - N/A   Clear
3:15 AM 12.2 °F -0.2 °F 1.4 °F 62% 30.19 in 10.0 mi West 9.2 mph - N/A   Clear
3:35 AM 12.2 °F -0.2 °F -0.4 °F 57% 30.19 in 10.0 mi West 9.2 mph - N/A   Clear
3:55 AM 12.2 °F 0.7 °F 1.4 °F 62% 30.19 in 10.0 mi West 8.1 mph - N/A   Clear
4:15 AM 12.2 °F 1.7 °F 1.4 °F 62% 30.18 in 10.0 mi West 6.9 mph - N/A   Clear
4:35 AM 10.4 °F -2.4 °F -0.4 °F 62% 30.18 in 10.0 mi West 9.2 mph - N/A   Clear
4:55 AM 10.4 °F -2.4 °F 1.4 °F 67% 30.18 in 10.0 mi West 9.2 mph - N/A   Clear
5:15 AM 10.4 °F -0.4 °F -0.4 °F 62% 30.18 in 10.0 mi West 6.9 mph - N/A   Clear
5:35 AM 10.4 °F -2.4 °F 1.4 °F 67% 30.18 in 10.0 mi West 9.2 mph - N/A   Clear
5:55 AM 10.4 °F -2.4 °F -0.4 °F 62% 30.19 in 10.0 mi West 9.2 mph - N/A   Clear
6:15 AM 10.4 °F -1.5 °F -0.4 °F 62% 30.19 in 10.0 mi West 8.1 mph - N/A   Clear
6:35 AM 10.4 °F -1.5 °F -0.4 °F 62% 30.19 in 10.0 mi WSW 8.1 mph - N/A   Clear
6:55 AM 10.4 °F -1.5 °F -0.4 °F 62% 30.19 in 10.0 mi West 8.1 mph - N/A   Clear
7:15 AM 12.2 °F -1.8 °F -2.2 °F 53% 30.19 in 10.0 mi West 11.5 mph - N/A   Clear
7:35 AM 12.2 °F -1.8 °F -0.4 °F 57% 30.19 in 10.0 mi West 11.5 mph - N/A   Clear
7:55 AM 12.2 °F -1.0 °F -0.4 °F 57% 30.19 in 10.0 mi West 10.4 mph - N/A   Clear
8:15 AM 12.2 °F -2.5 °F -0.4 °F 57% 30.20 in 10.0 mi West 12.7 mph 16.1 mph N/A   Clear
8:35 AM 14.0 °F -0.2 °F -2.2 °F 49% 30.20 in 10.0 mi West 12.7 mph 17.3 mph N/A   Clear
8:55 AM 14.0 °F 0.5 °F -0.4 °F 53% 30.20 in 10.0 mi West 11.5 mph 17.3 mph N/A   Clear
9:15 AM 15.8 °F 2.1 °F -0.4 °F 49% 30.19 in 10.0 mi West 12.7 mph - N/A   Clear
9:35 AM 15.8 °F 1.4 °F 1.4 °F 53% 30.19 in 10.0 mi West 13.8 mph - N/A   Clear
9:55 AM 17.6 °F 3.7 °F 1.4 °F 49% 30.19 in 10.0 mi West 13.8 mph - N/A   Clear
10:15 AM 17.6 °F 4.3 °F 1.4 °F 49% 30.20 in 10.0 mi West 12.7 mph - N/A   Clear
10:35 AM 19.4 °F 8.6 °F 3.2 °F 49% 30.19 in 10.0 mi West 9.2 mph - N/A   Clear
10:55 AM 21.2 °F 9.5 °F 1.4 °F 42% 30.20 in 10.0 mi West 11.5 mph - N/A   Clear
11:15 AM 21.2 °F 8.3 °F 3.2 °F 46% 30.19 in 10.0 mi WSW 13.8 mph - N/A   Clear
11:35 AM 21.2 °F 8.9 °F 3.2 °F 46% 30.19 in 10.0 mi West 12.7 mph - N/A   Clear
11:55 AM 24.8 °F 12.9 °F 3.2 °F 40% 30.18 in 10.0 mi West 13.8 mph 17.3 mph N/A   Clear
12:15 PM 24.8 °F 12.4 °F 5.0 °F 43% 30.17 in 10.0 mi West 15.0 mph - N/A   Clear
12:35 PM 24.8 °F 14.0 °F 5.0 °F 43% 30.17 in 10.0 mi West 11.5 mph - N/A   Clear
12:55 PM 26.6 °F 14.7 °F 5.0 °F 40% 30.15 in 10.0 mi West 15.0 mph - N/A   Clear
1:15 PM 26.6 °F 14.7 °F 3.2 °F 37% 30.15 in 10.0 mi West 15.0 mph - N/A   Clear
1:35 PM 28.4 °F 17.5 °F 5.0 °F 37% 30.14 in 10.0 mi West 13.8 mph 18.4 mph N/A   Clear
1:55 PM 28.4 °F 17.5 °F 6.8 °F 40% 30.13 in 10.0 mi West 13.8 mph 18.4 mph N/A   Clear
2:15 PM 28.4 °F 17.5 °F 6.8 °F 40% 30.12 in 10.0 mi WSW 13.8 mph 18.4 mph N/A   Clear
2:35 PM 28.4 °F 17.0 °F 6.8 °F 40% 30.12 in 10.0 mi WSW 15.0 mph - N/A   Clear
2:55 PM 30.2 °F 19.8 °F 6.8 °F 37% 30.11 in 10.0 mi WSW 13.8 mph - N/A   Clear
3:15 PM 30.2 °F 19.3 °F 6.8 °F 37% 30.11 in 10.0 mi WSW 15.0 mph - N/A   Clear
3:35 PM 30.2 °F 19.3 °F 6.8 °F 37% 30.10 in 10.0 mi WSW 15.0 mph - N/A   Clear
3:55 PM 30.2 °F 19.3 °F 6.8 °F 37% 30.10 in 10.0 mi WSW 15.0 mph - N/A   Clear
4:15 PM 30.2 °F 18.9 °F 8.6 °F 40% 30.09 in 10.0 mi WSW 16.1 mph - N/A   Clear
4:35 PM 30.2 °F 19.3 °F 8.6 °F 40% 30.09 in 10.0 mi WSW 15.0 mph 19.6 mph N/A   Clear
4:55 PM 30.2 °F 19.8 °F 6.8 °F 37% 30.09 in 10.0 mi WSW 13.8 mph 20.7 mph N/A   Clear
5:15 PM 28.4 °F 18.0 °F 6.8 °F 40% 30.08 in 10.0 mi WSW 12.7 mph - N/A   Clear
5:35 PM 28.4 °F 18.0 °F 6.8 °F 40% 30.09 in 10.0 mi WSW 12.7 mph - N/A   Clear
5:55 PM 28.4 °F 17.0 °F 6.8 °F 40% 30.08 in 10.0 mi WSW 15.0 mph - N/A   Clear
6:15 PM 28.4 °F 17.0 °F 6.8 °F 40% 30.09 in 10.0 mi WSW 15.0 mph 19.6 mph N/A   Clear
6:35 PM 28.4 °F 17.5 °F 6.8 °F 40% 30.09 in 10.0 mi WSW 13.8 mph 20.7 mph N/A   Clear
6:55 PM 26.6 °F 15.2 °F 6.8 °F 43% 30.08 in 10.0 mi WSW 13.8 mph 19.6 mph N/A   Clear
7:15 PM 26.6 °F 14.3 °F 6.8 °F 43% 30.09 in 10.0 mi WSW 16.1 mph 20.7 mph N/A   Clear
7:35 PM 26.6 °F 14.7 °F 8.6 °F 47% 30.08 in 10.0 mi WSW 15.0 mph 21.9 mph N/A   Clear
7:55 PM 26.6 °F 14.7 °F 6.8 °F 43% 30.08 in 10.0 mi WSW 15.0 mph 20.7 mph N/A   Clear
8:15 PM 24.8 °F 11.9 °F 6.8 °F 46% 30.08 in 10.0 mi WSW 16.1 mph 21.9 mph N/A   Clear
8:35 PM 24.8 °F 11.9 °F 5.0 °F 43% 30.08 in 10.0 mi WSW 16.1 mph - N/A   Clear
8:55 PM 24.8 °F 11.9 °F 5.0 °F 43% 30.08 in 10.0 mi WSW 16.1 mph 20.7 mph N/A   Clear
9:15 PM 24.8 °F 11.9 °F 5.0 °F 43% 30.08 in 10.0 mi WSW 16.1 mph 23.0 mph N/A   Clear
9:35 PM 24.8 °F 12.4 °F 3.2 °F 40% 30.08 in 10.0 mi WSW 15.0 mph 20.7 mph N/A   Clear
9:55 PM 23.0 °F 10.6 °F 5.0 °F 46% 30.08 in 10.0 mi West 13.8 mph - N/A   Clear
10:15 PM 23.0 °F 10.1 °F 5.0 °F 46% 30.08 in 10.0 mi West 15.0 mph 18.4 mph N/A   Clear
10:35 PM 23.0 °F 11.1 °F 5.0 °F 46% 30.08 in 10.0 mi West 12.7 mph 18.4 mph N/A   Clear
10:55 PM 21.2 °F 8.9 °F 3.2 °F 46% 30.08 in 10.0 mi WSW 12.7 mph - N/A   Clear
11:15 PM 21.2 °F 8.9 °F 3.2 °F 46% 30.07 in 10.0 mi West 12.7 mph - N/A   Clear
11:55 PM 21.2 °F 10.1 °F 3.2 °F 46% 30.07 in 10.0 mi West 10.4 mph - N/A   Clear